Flag for Spain Weather past 2 weeks in Santander, Spain

Now
66 °F

Broken clouds.


Feels Like: 66 °F
Forecast: 53 / 71 °F
Wind: 1 mph from North

Location: Santander / Parayas

Current Time: Aug 22, 2014 at 8:44:10 PM

Latest Report: Aug 22, 2014 at 8:00 PM


Visibility: N/A

Pressure: 30.09 "Hg

Humidity: 64%

Dew point: 54 °F

Location of SantanderLocation

Historic Weather in Santander — Graph

°F

Santander temperature yesterday

Maximum temperature yesterday: 70 °F (at 5:30 PM)
Minimum temperature yesterday: 63 °F (at 5:30 AM)
Average temperature yesterday: 66 °F

Past Weeks' High & Low Weather Summary

 TemperatureHumidityPressure
High82 °F (Aug 8, 4:00 PM)100% (Aug 9, 7:30 AM)30.30 "Hg (Aug 9, 7:30 AM)
Low54 °F (Aug 17, 5:30 AM)48% (Aug 8, 4:00 PM)29.77 "Hg (Aug 10, 5:30 AM)
Average67 °F74%30.04 "Hg
* Reported Aug 7 7:00 PM — Aug 22 7:30 PM, Santander, Weather by CustomWeather, © 2014

Note: Actual official high and low records may vary slightly from our data, if they occured in-between our weather recording intervals... More about our weather records

Advertising

Santander weather history for previous 24 hours

 ConditionsComfort  
Time TempWeatherWind HumidityBarometerVisibility
7:30 PM
Aug 22
68 °FBroken clouds.2 mph60%30.09 "HgN/A
7:00 PM68 °FBroken clouds.2 mph60%30.09 "HgN/A
6:30 PM68 °FBroken clouds.2 mph64%30.09 "HgN/A
6:00 PM68 °FBroken clouds.5 mph69%30.09 "HgN/A
5:30 PM68 °FBroken clouds.8 mph69%30.09 "HgN/A
5:00 PM68 °FBroken clouds.3 mph64%30.09 "HgN/A
4:30 PM68 °FBroken clouds.3 mph64%30.09 "HgN/A
4:00 PM68 °FBroken clouds.2 mph64%30.09 "HgN/A
3:30 PM68 °FBroken clouds.2 mph64%30.09 "HgN/A
3:00 PM70 °FBroken clouds.2 mph60%30.09 "HgN/A
2:30 PM68 °FBroken clouds.No wind64%30.09 "HgN/A
2:00 PM66 °FBroken clouds.No wind68%30.09 "HgN/A
1:30 PM66 °FBroken clouds.No wind68%30.09 "HgN/A
1:00 PM66 °FBroken clouds.No wind73%30.09 "HgN/A
12:30 PM66 °FBroken clouds.No wind73%30.09 "HgN/A
12:00 PM66 °FBroken clouds.1 mph73%30.09 "HgN/A
11:30 AM64 °FBroken clouds.1 mph73%30.07 "HgN/A
11:00 AM63 °FBroken clouds.1 mph77%30.07 "HgN/A
10:30 AM63 °FBroken clouds.No wind77%30.07 "HgN/A
10:00 AM61 °FBroken clouds.1 mph83%30.07 "HgN/A
9:30 AM61 °FBroken clouds.1 mph83%30.04 "HgN/A
9:00 AM59 °FScattered clouds.No wind82%30.04 "HgN/A
8:30 AM57 °FPartly sunny.1 mph88%30.04 "HgN/A
8:00 AM57 °FPassing clouds.1 mph88%30.04 "HgN/A
7:30 AM57 °FPassing clouds.No wind88%30.04 "HgN/A
7:00 AM57 °FPassing clouds.1 mph88%30.04 "HgN/A
6:30 AM57 °FPassing clouds.1 mph88%30.04 "HgN/A
6:00 AM57 °FPassing clouds.No wind88%30.04 "HgN/A
5:30 AM57 °FPassing clouds.No wind88%30.04 "HgN/A
11:00 PM
Aug 21
64 °FPassing clouds.2 mph68%30.07 "HgN/A
10:30 PM64 °FPassing clouds.2 mph68%30.07 "HgN/A
10:00 PM64 °FPartly sunny.2 mph68%30.07 "HgN/A
9:30 PM66 °FPartly sunny.5 mph64%30.07 "HgN/A
9:00 PM66 °FPartly sunny.7 mph64%30.07 "HgN/A
8:30 PM66 °FPartly sunny.7 mph64%30.04 "HgN/A
8:00 PM66 °FPartly sunny.8 mph64%30.04 "HgN/A
Weather by CustomWeather, © 2014

See weather overviewHow to use our weather pages